This is the latest recevied weather packets stored in our database for station/object PD0SBH-13. If no packets are shown the sender has not sent any weather packets the latest 10 day(s).
| Time | Temp. | Humidity | Pressure | Rain* | Wind** | Luminosity | Snow |
|---|---|---|---|---|---|---|---|
| 1777262121 | 4.44° C | 99% | 1018.1 hPa | 0 mm | - | - | - |
| 1777261516 | 5° C | 99% | 1018.1 hPa | 0 mm | - | - | - |
| 1777260920 | 5° C | 99% | 1018.1 hPa | 0 mm | - | - | - |
| 1777260325 | 5° C | 99% | 1018.2 hPa | 0 mm | - | - | - |
| 1777259719 | 5° C | 99% | 1018.3 hPa | 0 mm | - | - | - |
| 1777259122 | 5.56° C | 99% | 1018.4 hPa | 0 mm | - | - | - |
| 1777258525 | 5.56° C | 3% | 1018.4 hPa | 0 mm | - | - | - |
| 1777257920 | 6.11° C | 1% | 1018.4 hPa | 0 mm | - | - | - |
| 1777257325 | 6.11° C | 2% | 1018.5 hPa | 0 mm | - | - | - |
| 1777256720 | 6.67° C | 8% | 1018.5 hPa | 0 mm | - | - | - |
| 1777256123 | 6.67° C | 11% | 1018.6 hPa | 0 mm | - | - | - |
| 1777255518 | 6.67° C | 12% | 1018.6 hPa | 0 mm | - | - | - |
| 1777254922 | 7.22° C | 13% | 1018.5 hPa | 0 mm | - | - | - |
| 1777254317 | 7.22° C | 16% | 1018.6 hPa | 0 mm | - | - | - |
| 1777253723 | 7.22° C | 18% | 1018.8 hPa | 0 mm | - | - | - |
| 1777253119 | 7.22° C | 21% | 1018.8 hPa | 0 mm | - | - | - |
| 1777252523 | 7.22° C | 23% | 1018.8 hPa | 0 mm | - | - | - |
| 1777251919 | 7.78° C | 23% | 1018.8 hPa | 0 mm | - | - | - |
| 1777251324 | 7.78° C | 27% | 1018.8 hPa | 0 mm | - | - | - |
| 1777250719 | 7.78° C | 30% | 1018.8 hPa | 0 mm | - | - | - |
| 1777250123 | 7.78° C | 33% | 1018.9 hPa | 0 mm | - | - | - |
| 1777249516 | 8.33° C | 34% | 1018.9 hPa | 0 mm | - | - | - |
| 1777248921 | 8.33° C | 36% | 1019.1 hPa | 0 mm | - | - | - |
| 1777248325 | 8.33° C | 37% | 1019.1 hPa | 0 mm | - | - | - |
| 1777247719 | 8.33° C | 38% | 1019 hPa | 0 mm | - | - | - |
* Rain latest hour (hover to see other rain measurements)
** Current wind speed in m/s (hover to see current wind gust speed)